Location: Newark
(7.1028°S, 35.3258°W)
Time: 18:05:04
(UTC+00:00)

X-37B - Pass Details

Date: 01 March 2021
Orbit: 380 x 394 km, 45.0° (Epoch: 07 April)

Event Time Altitude Azimuth Distance (km) Brightness Sun altitude
Rises 22:14:54 0° 218° (SW) 2,268 5.2 -23.9°
Reaches altitude 10° 22:16:59 10° 213° (SSW) 1,414 4.0 -24.5°
Enters shadow 22:18:04 19° 208° (SSW) 989 3.0 -24.7°
